Location: Unspecified
(48.7670°N, 0.0000°E)
Time: 04:11:37
(UTC+00:00)

Vanguard 2 Rocket - Pass Details

Date: 08 October 2020
Orbit: 554 x 3326 km, 32.9° (Epoch: 26 October)

Event Time Altitude Azimuth Distance (km) Brightness Sun altitude
Exits shadow 02:10:55 46° 179° (S) 3,659 9.5 -37.6°
Maximum altitude 02:11:04 46° 178° (S) 3,666 9.5 -37.6°
Drops below altitude 10° 02:29:25 10° 114° (ESE) 6,279 11.4 -35.3°
Sets 02:34:32 0° 110° (ESE) 7,231 11.9 -34.6°
